Regional Weather Roundup
Issued by NWS New Orleans/Baton Rouge, LA

Home | Current Version | Previous Version | Text Only | Print | Product List | Glossary Off
Versions: 1 2 3 4 5 6 7 8 9 10 11 12 13 14 15 16 17 18 19 20 21 22 23 24 25 26 27 28 29 30 31 32 33 34 35 36 37 38 39 40 41 42 43 44 45 46 47 48 49 50

842
ASUS44 KLIX 171710
RWRLIX
NEW ORLEANS REGIONAL WEATHER ROUNDUP
NATIONAL WEATHER SERVICE NEW ORLEANS LA
1200 PM CDT THU APR 17 2014

NOTE: "FAIR" INDICATES FEW OR NO CLOUDS BELOW 12,000 FEET WITH NO
      SIGNIFICANT WEATHER AND/OR OBSTRUCTIONS TO VISIBILITY.
      SKY/WX - SKY CONDITION AND SIGNIFICANT WEATHER.
      TMP - AIR TEMPERATURE.     DP    - DEWPOINT TEMPERATURE.
      RH  - RELATIVE HUMIDITY.   PRES  - PRESSURE.
      HI  - HEAT INDEX.          WCI   - WIND CHILL INDEX.

*  THESE STATIONS ARE NOT NWS OR FAA STATIONS AND ARE NOT UNDER
   NWS QUALITY CONTROL.

LAZ038-040-048-061>063-065>067-069-171800-
SOUTHEAST LOUISIANA

CITY           SKY/WX    TMP DP  RH WIND       PRES   REMARKS
N.O. AUDUBON     N/A     67  57  69 MISG        N/A
N.O. INTL ARPT CLOUDY    64  56  75 E8        30.21S
N.O. LAKEFRONT CLOUDY    64  58  80 E12       30.22R
N.O. DOWNTOWN* CLOUDY    64  55  72 E7        30.22S
SLIDELL        CLOUDY    65  56  72 VRB6      30.21R
BATON ROUGE    CLOUDY    66  52  60 E10       30.20S
BOOTHVILLE     PTSUNNY   71  63  75 NE6       30.18R
BELLE CHASSE   CLOUDY    66  58  75 NE10      30.21R
BOGALUSA*        N/A     67  55  65 NE6       30.23S
GALLIANO*      CLOUDY    68  60  75 N14       30.17F
NEW ROADS*     PTSUNNY   64  52  64 E6        30.21S
GONZALES*      CLOUDY    64  55  71 NE5       30.19F
HAMMOND*       CLOUDY    64  54  68 E3        30.23S
HOUMA*         PTSUNNY   66  55  68 NE10      30.17S
PORT FOURCHON* PTSUNNY   66  59  77 NE13      30.17F

$$

MSZ070-080>082-171800-
SOUTHERN MISSISSIPPI

CITY           SKY/WX    TMP DP  RH WIND       PRES   REMARKS
MCCOMB         PTSUNNY   63  52  67 SE7       30.22S
GULFPORT       CLOUDY    66  55  67 E13       30.21R
BILOXI         PTSUNNY   66  57  73 SE13G18   30.22R
PASCAGOULA     CLOUDY    67  56  67 E9        30.21S
STENNIS ARPT*  CLOUDY    64  55  72 E8        30.22R

$$

COASTAL OBSERVATIONS
LAKE AND NEARSHORE STATIONS

STATION/POSITION TIME  TEMP    WIND        PRES    WAVE
                       AIR SEA DIR/SP/G            HT/PER
                 (UTC) (F)     (DEG/KT/KT) (MB)    (FT/S)
PASCAGOULA       1700   65      80/ 18/ 21 1022.6
WAVELAND YACHT   1700   62 65  110/ 16/ 19 1022.2
GRAND ISLE       1700   67 66   60/  7/  8 1022.4
SOUTHWEST PASS   1700   74 58   50/  7/  8 1021.5
NEW CANAL        1700   61 63   40/  8/  9 1023.3
SHELL BEACH      1700   63 61   70/ 15/ 19 1022.3

OFFSHORE STATIONS

STATION/POSITION TIME  TEMP    WIND        PRES    WAVE
                       AIR SEA DIR/SP/G            HT/PER
                 (UTC) (F)     (DEG/KT/KT) (MB)    (FT/S)
64 S DAUPHIN ISL 1553   66 71   80/ 25/ 29 1021.7

$$




USA.gov is the U.S. government's official web portal to all federal, state and local government web resources and services.